Location: Utrecht
(52.0907°N, 5.1214°E)
Time: 01:37:12
(UTC+02:00)

KKS-1 - Pass Details

Date: 27 June 2022
Orbit: 634 x 649 km, 98.2° (Epoch: 18 August)

Event Time Altitude Azimuth Distance (km) Brightness Sun altitude
Rises 00:55:35 0° 7° (N) 2,982 ? -13.9°
Reaches altitude 10° 00:58:01 10° 357° (N) 2,067 ? -14.0°
Maximum altitude 01:01:53 29° 298° (WNW) 1,201 ? -14.1°
Drops below altitude 10° 01:05:43 10° 239° (WSW) 2,051 ? -14.1°
Enters shadow 01:07:19 - 230° (SW) 2,644 ? -14.2°
